When you browse on this site, cookies collect data to enhance your experience and personalize the content and advertising you see.
Visit our Privacy Policy to learn more. By continuing to use the site, you agree to this use of cookies and data.
  • In Lithuania
  • List of Countries
  • For 7 days
  • Water Temperature
  • Satellite Maps
  • Weather Map
  • Weather Widgets
  • user-avatar
    Login

    Hourly Weather Hobart

    Today, 24 March, Sunday

    Time Temperature Precipitation Wind Pressure Humidity
    00:00 +18°C° 0 mm 2 mps 740 mmHg 80%
    01:00 +18°C° 0 mm 2 mps 740 mmHg 82%
    02:00 +17°C° 0 mm 2 mps 740 mmHg 83%
    03:00 +16°C° 0 mm 2 mps 741 mmHg 83%
    04:00 +15°C° 0 mm 1 mps 741 mmHg 87%
    05:00 +15°C° 0 mm 1 mps 741 mmHg 87%
    06:00 +15°C° 0 mm 1 mps 741 mmHg 87%
    07:00 +15°C° 0 mm 1 mps 742 mmHg 86%
    08:00 +18°C° 0.1 mm 1 mps 742 mmHg 75%
    09:00 +20°C° 0.1 mm 1 mps 742 mmHg 63%
    10:00 +22°C° 0 mm 1 mps 742 mmHg 52%
    11:00 +23°C° 0 mm 2 mps 741 mmHg 50%
    12:00 +23°C° 0 mm 2 mps 741 mmHg 48%
    13:00 +22°C° 0 mm 3 mps 740 mmHg 47%
    14:00 +24°C° 0 mm 3 mps 739 mmHg 44%
    15:00 +25°C° 0 mm 3 mps 738 mmHg 41%
    16:00 +25°C° 0 mm 3 mps 737 mmHg 38%
    17:00 +22°C° 0 mm 3 mps 737 mmHg 45%
    18:00 +20°C° 0 mm 4 mps 736 mmHg 52%
    19:00 +19°C° 0 mm 4 mps 736 mmHg 59%
    20:00 +18°C° 0 mm 4 mps 735 mmHg 64%
    21:00 +17°C° 0 mm 5 mps 734 mmHg 68%
    22:00 +16°C° 0 mm 5 mps 733 mmHg 73%
    23:00 +17°C° 0.3 mm 5 mps 731 mmHg 74%

    Tomorrow, 25 March, Monday

    Time Temperature Precipitation Wind Pressure Humidity
    00:00 +17°C° 0.3 mm 6 mps 730 mmHg 76%
    01:00 +19°C° 0.3 mm 6 mps 729 mmHg 77%
    02:00 +17°C° 0.2 mm 7 mps 729 mmHg 73%
    03:00 +16°C° 0.2 mm 7 mps 728 mmHg 70%
    04:00 +15°C° 0.2 mm 7 mps 728 mmHg 66%
    05:00 +13°C° 0 mm 8 mps 728 mmHg 63%
    06:00 +11°C° 0 mm 8 mps 729 mmHg 59%
    07:00 +10°C° 0 mm 9 mps 729 mmHg 56%
    08:00 +11°C° 0.1 mm 9 mps 730 mmHg 54%
    09:00 +11°C° 0.1 mm 9 mps 730 mmHg 52%
    10:00 +11°C° 0.1 mm 9 mps 730 mmHg 50%
    11:00 +11°C° 0.1 mm 9 mps 731 mmHg 49%
    12:00 +11°C° 0.1 mm 9 mps 731 mmHg 49%
    13:00 +11°C° 0.1 mm 9 mps 731 mmHg 48%
    14:00 +11°C° 0 mm 9 mps 732 mmHg 47%
    15:00 +11°C° 0 mm 10 mps 732 mmHg 45%
    16:00 +9°C° 0 mm 10 mps 732 mmHg 44%
    17:00 +9°C° 0 mm 10 mps 732 mmHg 48%
    18:00 +8°C° 0 mm 9 mps 733 mmHg 53%
    19:00 +7°C° 0 mm 9 mps 733 mmHg 57%
    20:00 +7°C° 0.1 mm 9 mps 733 mmHg 60%
    21:00 +7°C° 0.1 mm 9 mps 734 mmHg 64%
    22:00 +7°C° 0.1 mm 8 mps 734 mmHg 67%
    23:00 +7°C° 0 mm 8 mps 734 mmHg 66%

    Day after tomorrow, 26 March, Tuesday

    Time Temperature Precipitation Wind Pressure Humidity
    00:00 +9°C° 0 mm 8 mps 734 mmHg 65%
    01:00 +9°C° 0 mm 8 mps 735 mmHg 64%
    02:00 +9°C° 0 mm 8 mps 735 mmHg 62%
    03:00 +10°C° 0 mm 8 mps 736 mmHg 61%
    04:00 +10°C° 0 mm 7 mps 736 mmHg 59%
    05:00 +10°C° 0 mm 8 mps 737 mmHg 59%
    06:00 +10°C° 0 mm 8 mps 738 mmHg 59%
    07:00 +10°C° 0 mm 8 mps 740 mmHg 60%
    08:00 +10°C° 0 mm 8 mps 741 mmHg 56%
    09:00 +11°C° 0 mm 8 mps 742 mmHg 53%
    10:00 +12°C° 0 mm 8 mps 743 mmHg 50%
    11:00 +12°C° 0 mm 8 mps 743 mmHg 50%
    12:00 +12°C° 0 mm 8 mps 744 mmHg 50%
    13:00 +14°C° 0 mm 7 mps 745 mmHg 50%
    14:00 +14°C° 0 mm 7 mps 745 mmHg 51%
    15:00 +14°C° 0 mm 6 mps 746 mmHg 52%
    16:00 +14°C° 0 mm 6 mps 746 mmHg 52%
    17:00 +13°C° 0 mm 5 mps 747 mmHg 57%
    18:00 +12°C° 0 mm 4 mps 748 mmHg 61%
    19:00 +11°C° 0 mm 4 mps 749 mmHg 66%
    20:00 +10°C° 0 mm 3 mps 749 mmHg 71%
    21:00 +10°C° 0 mm 3 mps 750 mmHg 77%
    22:00 +9°C° 0 mm 2 mps 751 mmHg 82%
    23:00 +9°C° 0 mm 2 mps 751 mmHg 85%

    27 March, Wednesday

    Time Temperature Precipitation Wind Pressure Humidity
    00:00 +8°C° 0 mm 2 mps 751 mmHg 88%
    01:00 +8°C° 0 mm 2 mps 751 mmHg 90%
    02:00 +8°C° 0 mm 2 mps 751 mmHg 92%
    03:00 +8°C° 0 mm 2 mps 751 mmHg 93%
    04:00 +7°C° 0 mm 2 mps 751 mmHg 94%
    05:00 +7°C° 0 mm 2 mps 752 mmHg 94%
    06:00 +8°C° 0 mm 2 mps 752 mmHg 93%
    07:00 +8°C° 0 mm 2 mps 752 mmHg 92%
    08:00 +10°C° 0 mm 2 mps 753 mmHg 80%
    09:00 +14°C° 0 mm 2 mps 753 mmHg 68%
    10:00 +17°C° 0 mm 2 mps 753 mmHg 56%
    11:00 +18°C° 0 mm 2 mps 753 mmHg 51%
    12:00 +21°C° 0 mm 1 mps 752 mmHg 45%
    13:00 +22°C° 0 mm 1 mps 752 mmHg 40%
    14:00 +22°C° 0 mm 1 mps 752 mmHg 41%
    15:00 +22°C° 0 mm 1 mps 751 mmHg 42%
    16:00 +21°C° 0 mm 2 mps 751 mmHg 43%
    17:00 +19°C° 0 mm 1 mps 751 mmHg 53%
    18:00 +16°C° 0 mm 1 mps 751 mmHg 63%
    19:00 +14°C° 0 mm 1 mps 751 mmHg 73%
    20:00 +14°C° 0 mm 1 mps 751 mmHg 75%
    21:00 +13°C° 0 mm 1 mps 751 mmHg 76%
    22:00 +13°C° 0 mm 1 mps 751 mmHg 78%
    23:00 +12°C° 0 mm 1 mps 750 mmHg 82%

    28 March, Thursday

    Time Temperature Precipitation Wind Pressure Humidity
    00:00 +11°C° 0 mm 1 mps 750 mmHg 86%
    01:00 +9°C° 0 mm 2 mps 749 mmHg 90%
    02:00 +9°C° 0 mm 2 mps 749 mmHg 90%
    03:00 +9°C° 0 mm 2 mps 748 mmHg 91%
    04:00 +8°C° 0 mm 2 mps 748 mmHg 92%
    05:00 +8°C° 0 mm 2 mps 748 mmHg 90%
    06:00 +9°C° 0 mm 2 mps 748 mmHg 88%
    07:00 +9°C° 0 mm 2 mps 747 mmHg 86%
    08:00 +12°C° 0 mm 3 mps 747 mmHg 73%
    09:00 +16°C° 0 mm 3 mps 747 mmHg 60%
    10:00 +19°C° 0 mm 4 mps 746 mmHg 47%
    11:00 +20°C° 0 mm 4 mps 746 mmHg 44%
    12:00 +22°C° 0 mm 4 mps 745 mmHg 40%
    13:00 +23°C° 0 mm 5 mps 745 mmHg 36%
    14:00 +22°C° 0 mm 5 mps 744 mmHg 40%
    15:00 +21°C° 0 mm 5 mps 743 mmHg 44%
    16:00 +21°C° 0 mm 5 mps 743 mmHg 47%
    17:00 +19°C° 0 mm 4 mps 743 mmHg 54%
    18:00 +17°C° 0 mm 3 mps 743 mmHg 61%
    19:00 +16°C° 0 mm 2 mps 743 mmHg 67%
    20:00 +14°C° 0 mm 3 mps 743 mmHg 69%
    21:00 +14°C° 0 mm 3 mps 743 mmHg 72%
    22:00 +14°C° 0 mm 3 mps 744 mmHg 74%
    23:00 +14°C° 0.1 mm 3 mps 743 mmHg 75%

    29 March, Friday

    Time Temperature Precipitation Wind Pressure Humidity
    00:00 +14°C° 0.1 mm 3 mps 743 mmHg 77%
    01:00 +15°C° 0.1 mm 2 mps 743 mmHg 78%
    02:00 +15°C° 0.1 mm 2 mps 743 mmHg 80%
    03:00 +15°C° 0.1 mm 2 mps 743 mmHg 82%
    04:00 +14°C° 0.1 mm 1 mps 742 mmHg 83%
    05:00 +14°C° 0.3 mm 1 mps 742 mmHg 85%
    06:00 +14°C° 0.3 mm 1 mps 742 mmHg 87%
    07:00 +14°C° 0.3 mm 1 mps 742 mmHg 89%
    08:00 +14°C° 0.1 mm 1 mps 742 mmHg 87%
    09:00 +15°C° 0.1 mm 1 mps 742 mmHg 85%
    10:00 +14°C° 0.1 mm 0 mps 741 mmHg 83%
    11:00 +16°C° 0.4 mm 1 mps 741 mmHg 79%
    12:00 +16°C° 0.4 mm 1 mps 740 mmHg 75%
    13:00 +18°C° 0.4 mm 1 mps 739 mmHg 71%
    14:00 +16°C° 0.6 mm 1 mps 739 mmHg 73%
    15:00 +16°C° 0.6 mm 1 mps 738 mmHg 74%
    16:00 +15°C° 0.6 mm 1 mps 737 mmHg 76%
    17:00 +14°C° 0.3 mm 1 mps 738 mmHg 80%
    18:00 +13°C° 0.3 mm 1 mps 738 mmHg 83%
    19:00 +10°C° 0.3 mm 2 mps 738 mmHg 86%
    20:00 +10°C° 0.5 mm 2 mps 738 mmHg 88%
    21:00 +10°C° 0.5 mm 2 mps 738 mmHg 89%
    22:00 +10°C° 0.5 mm 2 mps 738 mmHg 91%
    23:00 +9°C° 0.2 mm 2 mps 738 mmHg 92%
    Show more